DEJFK EDDH-ZZZZ

Flight info

Callsign DEJFK
Flight time N/A
Altitude
Route VFR DCT
Aircraft C172

Departure

Time 2026-05-05 17:37
Airport Hamburg Helmut Schmidt Airport (EDDH)

Arrival

Time N/A
Airport ZZZZ
Time Latitude Longitude Altitude Speed Heading
2026-05-05 17:29 53.62726 9.98810 57 ft 0 kts 242°
2026-05-05 17:32 53.62729 9.98804 57 ft 1 kts
2026-05-05 17:32 53.62776 9.98808 57 ft 9 kts 348°
2026-05-05 17:32 53.62842 9.98854 57 ft 16 kts 58°
2026-05-05 17:32 53.62909 9.98999 57 ft 16 kts 50°
2026-05-05 17:33 53.62974 9.99132 57 ft 14 kts 50°
2026-05-05 17:33 53.63049 9.99263 57 ft 12 kts 32°
2026-05-05 17:33 53.63145 9.99319 57 ft 13 kts 13°
2026-05-05 17:33 53.63157 9.99323 57 ft 0 kts 13°
2026-05-05 17:35 53.63187 9.99335 57 ft 14 kts 16°
2026-05-05 17:35 53.63367 9.99310 57 ft 44 kts 333°
2026-05-05 17:36 53.63753 9.98961 122 ft 71 kts 332°
2026-05-05 17:36 53.64164 9.98486 301 ft 73 kts 316°
2026-05-05 17:36 53.64245 9.97613 460 ft 80 kts 274°
2026-05-05 17:36 53.64270 9.96597 554 ft 91 kts 272°
2026-05-05 17:37 53.64233 9.95511 668 ft 95 kts 267°
2026-05-05 17:37 53.64189 9.94758 722 ft 99 kts 264°
2026-05-05 17:37 53.64135 9.93219 850 ft 98 kts 279°
2026-05-05 17:37 53.64286 9.92071 939 ft 102 kts 291°
2026-05-05 17:38 53.64498 9.90837 891 ft 120 kts 288°
2026-05-05 17:38 53.64703 9.89465 872 ft 125 kts 290°
2026-05-05 17:38 53.64961 9.88056 862 ft 126 kts 284°
2026-05-05 17:38 53.65094 9.86603 909 ft 124 kts 279°
2026-05-05 17:39 53.65188 9.85153 909 ft 125 kts 284°
2026-05-05 17:39 53.65373 9.83752 979 ft 120 kts 287°
2026-05-05 17:39 53.65715 9.82493 1029 ft 115 kts 314°
2026-05-05 17:39 53.66277 9.81568 1085 ft 111 kts 324°
2026-05-05 17:40 53.66885 9.80724 1020 ft 118 kts 328°
2026-05-05 17:40 53.67568 9.79882 961 ft 121 kts 333°
2026-05-05 17:40 53.68269 9.79148 947 ft 120 kts 334°
2026-05-05 17:40 53.68977 9.78457 991 ft 116 kts 336°
2026-05-05 17:41 53.69703 9.77791 903 ft 121 kts 334°
2026-05-05 17:41 53.70400 9.77114 1087 ft 103 kts 336°
2026-05-05 17:41 53.71101 9.76493 933 ft 121 kts 339°
2026-05-05 17:41 53.71827 9.75931 1039 ft 111 kts 342°
2026-05-05 17:42 53.72536 9.75441 1133 ft 106 kts 344°
2026-05-05 17:42 53.73223 9.75022 1247 ft 102 kts 347°
2026-05-05 17:42 53.73815 9.74392 1435 ft 100 kts 328°
2026-05-05 17:42 53.74350 9.73637 1569 ft 100 kts 327°
2026-05-05 17:43 53.74878 9.72871 1714 ft 99 kts 327°
2026-05-05 17:43 53.75396 9.72117 1851 ft 99 kts 327°
2026-05-05 17:43 53.75926 9.71349 1962 ft 102 kts 327°
2026-05-05 17:43 53.76490 9.70556 1981 ft 109 kts 327°
2026-05-05 17:44 53.77093 9.69723 1981 ft 114 kts 328°
2026-05-05 17:44 53.77723 9.68859 1975 ft 116 kts 327°
2026-05-05 17:44 53.78344 9.68000 1973 ft 117 kts 328°
2026-05-05 17:44 53.78979 9.67122 1969 ft 117 kts 328°
2026-05-05 17:45 53.79574 9.66280 2168 ft 104 kts 327°
2026-05-05 17:45 53.80123 9.65488 2256 ft 105 kts 327°
2026-05-05 17:45 53.80704 9.64656 2266 ft 111 kts 327°
2026-05-05 17:45 53.81304 9.63807 2265 ft 114 kts 327°
2026-05-05 17:46 53.81922 9.62942 2264 ft 116 kts 327°
2026-05-05 17:46 53.82549 9.62075 2263 ft 116 kts 327°
2026-05-05 17:46 53.83179 9.61214 2264 ft 117 kts 327°
2026-05-05 17:46 53.83818 9.60345 2264 ft 117 kts 328°
2026-05-05 17:47 53.84452 9.59485 2265 ft 117 kts 328°
2026-05-05 17:47 53.85088 9.58620 2265 ft 117 kts 328°
2026-05-05 17:47 53.85726 9.57753 2264 ft 117 kts 328°
2026-05-05 17:47 53.86366 9.56884 2264 ft 117 kts 328°
2026-05-05 17:48 53.86997 9.56018 2261 ft 118 kts 328°
2026-05-05 17:48 53.87637 9.55135 2267 ft 118 kts 328°
2026-05-05 17:48 53.88279 9.54244 2265 ft 118 kts 327°
2026-05-05 17:48 53.88915 9.53364 2263 ft 118 kts 328°
2026-05-05 17:49 53.89552 9.52484 2262 ft 118 kts 328°
2026-05-05 17:49 53.90187 9.51614 2263 ft 117 kts 328°
2026-05-05 17:49 53.90823 9.50756 2265 ft 117 kts 328°
2026-05-05 17:49 53.91469 9.49887 2263 ft 117 kts 328°
2026-05-05 17:50 53.92107 9.49036 2263 ft 117 kts 329°
2026-05-05 17:50 53.92776 9.48248 2263 ft 117 kts 332°
2026-05-05 17:50 53.93454 9.47471 2266 ft 117 kts 332°
2026-05-05 17:50 53.94114 9.46721 2264 ft 112 kts 332°
2026-05-05 17:51 53.94768 9.45979 2259 ft 115 kts 333°
2026-05-05 17:51 53.95434 9.45224 2264 ft 115 kts 333°
2026-05-05 17:51 53.96101 9.44469 2264 ft 116 kts 333°
2026-05-05 17:51 53.96781 9.43699 2263 ft 116 kts 333°
2026-05-05 17:52 53.97457 9.42937 2263 ft 116 kts 333°
2026-05-05 17:52 53.98129 9.42179 2266 ft 116 kts 332°
2026-05-05 17:52 53.98798 9.41423 2267 ft 116 kts 332°
2026-05-05 17:52 53.99472 9.40661 2268 ft 117 kts 332°
2026-05-05 17:53 54.00153 9.39890 2263 ft 117 kts 332°
2026-05-05 17:53 54.00826 9.39128 2264 ft 117 kts 332°
2026-05-05 17:53 54.01509 9.38355 2265 ft 117 kts 332°
2026-05-05 17:53 54.02188 9.37586 2264 ft 117 kts 333°
2026-05-05 17:54 54.02857 9.36828 2265 ft 117 kts 333°
2026-05-05 17:54 54.03534 9.36061 2267 ft 117 kts 333°
2026-05-05 17:54 54.04215 9.35290 2265 ft 117 kts 333°
2026-05-05 17:54 54.04898 9.34515 2264 ft 117 kts 332°
2026-05-05 17:55 54.05575 9.33750 2263 ft 117 kts 332°
2026-05-05 17:55 54.06251 9.32984 2264 ft 117 kts 331°
2026-05-05 17:55 54.06933 9.32210 2264 ft 117 kts 331°
2026-05-05 17:55 54.07606 9.31446 2264 ft 117 kts 332°
2026-05-05 17:56 54.08291 9.30667 2263 ft 117 kts 332°
2026-05-05 17:56 54.08965 9.29902 2264 ft 117 kts 331°
2026-05-05 17:56 54.09646 9.29127 2265 ft 117 kts 331°
2026-05-05 17:56 54.10332 9.28348 2266 ft 117 kts 331°
2026-05-05 17:57 54.11002 9.27585 2267 ft 117 kts 332°
2026-05-05 17:57 54.11684 9.26807 2268 ft 117 kts 332°
2026-05-05 17:57 54.12894 9.25430 2270 ft 117 kts 332°
2026-05-05 17:57 54.13866 9.24324 2271 ft 117 kts 332°
2026-05-05 17:58 54.14541 9.23555 2276 ft 117 kts 332°
2026-05-05 17:58 54.15217 9.22783 2279 ft 116 kts 332°
2026-05-05 17:58 54.15897 9.22008 2285 ft 116 kts 332°
2026-05-05 17:58 54.16569 9.21241 2289 ft 116 kts 332°
2026-05-05 17:59 54.17233 9.20484 2287 ft 116 kts 332°
2026-05-05 17:59 54.17913 9.19709 2288 ft 117 kts 331°
2026-05-05 17:59 54.18584 9.18942 2288 ft 117 kts 331°
2026-05-05 17:59 54.19263 9.18165 2288 ft 117 kts 332°
2026-05-05 18:00 54.19946 9.17384 2289 ft 117 kts 332°
2026-05-05 18:00 54.20618 9.16614 2290 ft 117 kts 332°
2026-05-05 18:00 54.21296 9.15838 2288 ft 116 kts 332°
2026-05-05 18:00 54.21968 9.15069 2287 ft 116 kts 332°
2026-05-05 18:01 54.22636 9.14304 2284 ft 116 kts 332°
2026-05-05 18:01 54.23313 9.13528 2282 ft 116 kts 332°
2026-05-05 18:01 54.23987 9.12756 2277 ft 116 kts 332°
2026-05-05 18:01 54.24656 9.11988 2276 ft 116 kts 332°
2026-05-05 18:02 54.25325 9.11222 2276 ft 116 kts 332°
2026-05-05 18:02 54.26006 9.10443 2275 ft 117 kts 331°
2026-05-05 18:02 54.26686 9.09661 2272 ft 117 kts 331°
2026-05-05 18:02 54.27359 9.08888 2276 ft 117 kts 331°
2026-05-05 18:03 54.28032 9.08115 2282 ft 116 kts 331°
2026-05-05 18:03 54.28707 9.07338 2284 ft 116 kts 331°
2026-05-05 18:03 54.29385 9.06559 2289 ft 116 kts 331°
2026-05-05 18:03 54.30057 9.05786 2293 ft 116 kts 331°
2026-05-05 18:04 54.30735 9.05005 2293 ft 116 kts 331°
2026-05-05 18:04 54.31407 9.04232 2293 ft 116 kts 331°
2026-05-05 18:04 54.32092 9.03441 2294 ft 116 kts 331°
2026-05-05 18:04 54.32760 9.02672 2293 ft 117 kts 331°
2026-05-05 18:05 54.33438 9.01891 2293 ft 116 kts 331°
2026-05-05 18:05 54.34112 9.01114 2296 ft 116 kts 330°
2026-05-05 18:05 54.34784 9.00339 2297 ft 115 kts 330°
2026-05-05 18:05 54.35454 8.99565 2296 ft 115 kts 331°
2026-05-05 18:06 54.36125 8.98790 2296 ft 115 kts 331°
2026-05-05 18:06 54.36342 8.98540 2296 ft 115 kts 331°
2026-05-05 18:06 54.37455 8.97253 2295 ft 116 kts 331°
2026-05-05 18:06 54.38125 8.96479 2291 ft 116 kts 331°
2026-05-05 18:07 54.38800 8.95699 2286 ft 116 kts 331°
2026-05-05 18:07 54.39481 8.94912 2282 ft 116 kts 331°
2026-05-05 18:07 54.40151 8.94137 2278 ft 116 kts 331°
2026-05-05 18:07 54.40829 8.93351 2275 ft 116 kts 331°
2026-05-05 18:08 54.41500 8.92574 2274 ft 116 kts 331°
2026-05-05 18:08 54.42170 8.91797 2274 ft 116 kts 332°
2026-05-05 18:08 54.42843 8.91015 2274 ft 116 kts 332°
2026-05-05 18:08 54.43509 8.90235 2261 ft 116 kts 331°
2026-05-05 18:09 54.44187 8.89470 2235 ft 115 kts 339°
2026-05-05 18:09 54.44929 8.89050 2240 ft 114 kts 337°
2026-05-05 18:09 54.45575 8.88243 2304 ft 111 kts 328°
2026-05-05 18:09 54.46183 8.87434 2379 ft 109 kts 328°
2026-05-05 18:10 54.46810 8.86627 2323 ft 116 kts 329°
2026-05-05 18:10 54.47471 8.85792 2290 ft 117 kts 330°
2026-05-05 18:10 54.48128 8.84989 2282 ft 116 kts 330°
2026-05-05 18:10 54.48784 8.84196 2277 ft 107 kts 332°
2026-05-05 18:11 54.49410 8.83446 2283 ft 110 kts 331°
2026-05-05 18:11 54.50039 8.82696 2286 ft 112 kts 331°
2026-05-05 18:11 54.50691 8.81927 2284 ft 113 kts 332°
2026-05-05 18:11 54.51351 8.81153 2283 ft 114 kts 332°
2026-05-05 18:12 54.52003 8.80393 2282 ft 114 kts 332°
2026-05-05 18:12 54.52663 8.79626 2282 ft 114 kts 332°
2026-05-05 18:12 54.53330 8.78851 2283 ft 114 kts 332°
2026-05-05 18:12 54.53984 8.78089 2284 ft 114 kts 332°
2026-05-05 18:13 54.54635 8.77331 2286 ft 113 kts 331°
2026-05-05 18:13 54.55293 8.76562 2288 ft 113 kts 331°
2026-05-05 18:13 54.55944 8.75802 2290 ft 114 kts 331°
2026-05-05 18:13 54.56604 8.75030 2291 ft 114 kts 332°
2026-05-05 18:14 54.57263 8.74258 2292 ft 114 kts 332°
2026-05-05 18:14 54.57927 8.73482 2293 ft 114 kts 332°
2026-05-05 18:14 54.58587 8.72710 2294 ft 114 kts 332°
2026-05-05 18:14 54.59245 8.71941 2297 ft 114 kts 332°
2026-05-05 18:15 54.59904 8.71169 2299 ft 114 kts 332°
2026-05-05 18:15 54.60560 8.70400 2301 ft 113 kts 332°
2026-05-05 18:15 54.61212 8.69635 2303 ft 113 kts 332°
2026-05-05 18:15 54.61863 8.68873 2304 ft 113 kts 331°
2026-05-05 18:16 54.62521 8.68102 2305 ft 113 kts 331°
2026-05-05 18:16 54.63178 8.67331 2304 ft 113 kts 331°
2026-05-05 18:16 54.63832 8.66562 2303 ft 114 kts 331°
2026-05-05 18:16 54.64468 8.65726 2303 ft 116 kts 323°
2026-05-05 18:17 54.65049 8.64761 2301 ft 116 kts 321°
2026-05-05 18:17 54.65625 8.63782 2301 ft 116 kts 321°
2026-05-05 18:17 54.66201 8.62802 2300 ft 116 kts 322°
2026-05-05 18:17 54.66778 8.61820 2299 ft 116 kts 321°
2026-05-05 18:18 54.67357 8.60834 2296 ft 116 kts 321°
2026-05-05 18:18 54.67932 8.59844 2295 ft 116 kts 321°
2026-05-05 18:18 54.68449 8.58752 2295 ft 118 kts 313°
2026-05-05 18:18 54.68858 8.57508 2295 ft 120 kts 304°